Time,TemperatureF,DewpointF,PressureIn,WindDirection,WindDirectionDegrees,WindSpeedMPH,WindSpeedGustMPH,Humidity,HourlyPrecipIn,Conditions,Clouds,dailyrainin,SolarRadiationWatts/m^2,SoftwareType,DateUTC
2013-12-20 00:01:00,20.0,18.1,29.94,NNE,15,9.0,9.0,92,0.00,,,0.01,0,Wunderground v.1.15,2013-12-20 06:01:00,
2013-12-20 00:11:00,19.9,18.0,29.95,NE,34,8.0,8.0,92,0.00,,,0.01,0,Wunderground v.1.15,2013-12-20 06:11:00,
2013-12-20 00:21:00,19.9,18.0,29.95,NNE,16,9.0,16.0,92,0.00,,,0.01,0,Wunderground v.1.15,2013-12-20 06:21:00,
2013-12-20 00:31:00,19.8,17.9,29.95,North,355,9.0,9.0,92,0.00,,,0.01,0,Wunderground v.1.15,2013-12-20 06:31:00,
2013-12-20 00:40:00,19.8,17.9,29.95,NNE,15,10.0,10.0,92,0.00,,,0.01,0,Wunderground v.1.15,2013-12-20 06:40:00,
2013-12-20 00:51:00,19.7,17.8,29.96,North,9,10.0,15.0,92,0.00,,,0.01,0,Wunderground v.1.15,2013-12-20 06:51:00,
2013-12-20 01:01:00,19.6,17.7,29.96,NNE,13,10.0,10.0,92,0.00,,,0.01,0,Wunderground v.1.15,2013-12-20 07:01:00,
2013-12-20 01:10:00,19.5,17.6,29.96,North,360,9.0,9.0,92,0.00,,,0.01,0,Wunderground v.1.15,2013-12-20 07:10:00,
2013-12-20 01:21:00,-999.9,-99.9,29.94,NNE,14,8.0,8.0,255,-99.99,,,0.01,,Wunderground v.1.15,2013-12-20 07:21:00,
2013-12-20 01:30:00,-999.9,-99.9,29.94,NNE,16,8.0,13.0,255,-99.99,,,0.01,,Wunderground v.1.15,2013-12-20 07:30:00,
2013-12-20 01:41:00,-999.9,-99.9,29.95,North,360,9.0,13.0,255,-99.99,,,0.01,,Wunderground v.1.15,2013-12-20 07:41:00,
2013-12-20 01:50:00,-999.9,-99.9,29.94,NNE,24,10.0,10.0,255,-99.99,,,0.01,,Wunderground v.1.15,2013-12-20 07:50:00,
2013-12-20 02:00:00,19.4,17.5,29.94,NNE,16,8.0,8.0,92,0.00,,,0.01,0,Wunderground v.1.15,2013-12-20 08:00:00,
2013-12-20 02:11:00,19.3,17.4,29.95,North,355,9.0,9.0,92,0.00,,,0.01,0,Wunderground v.1.15,2013-12-20 08:11:00,
2013-12-20 02:21:00,19.3,17.4,29.94,NNE,18,8.0,15.0,92,0.00,,,0.01,0,Wunderground v.1.15,2013-12-20 08:21:00,
2013-12-20 02:30:00,19.2,17.3,29.93,NNE,17,8.0,15.0,92,0.00,,,0.01,0,Wunderground v.1.15,2013-12-20 08:30:00,
2013-12-20 02:41:00,19.2,17.3,29.94,North,355,7.0,7.0,92,0.00,,,0.00,0,Wunderground v.1.15,2013-12-20 08:41:00,
2013-12-20 02:51:00,19.3,17.4,29.95,North,360,7.0,16.0,92,0.00,,,0.00,0,Wunderground v.1.15,2013-12-20 08:51:00,
2013-12-20 03:00:00,19.3,17.4,29.95,NNE,12,8.0,12.0,92,0.00,,,0.00,0,Wunderground v.1.15,2013-12-20 09:00:00,
2013-12-20 03:10:00,19.4,17.5,29.95,NNE,14,8.0,8.0,92,0.00,,,0.00,0,Wunderground v.1.15,2013-12-20 09:10:00,
2013-12-20 03:21:00,19.3,17.4,29.95,North,360,8.0,8.0,92,0.00,,,0.00,0,Wunderground v.1.15,2013-12-20 09:21:00,
2013-12-20 03:31:00,19.3,17.4,29.95,North,351,9.0,16.0,92,0.00,,,0.00,0,Wunderground v.1.15,2013-12-20 09:31:00,
2013-12-20 03:40:00,19.2,17.3,29.94,North,5,9.0,16.0,92,0.00,,,0.00,0,Wunderground v.1.15,2013-12-20 09:40:00,
2013-12-20 03:50:00,19.1,17.2,29.95,North,5,9.0,9.0,92,0.00,,,0.00,0,Wunderground v.1.15,2013-12-20 09:50:00,
2013-12-20 04:01:00,19.0,17.1,29.95,North,5,8.0,15.0,92,0.00,,,0.00,0,Wunderground v.1.15,2013-12-20 10:01:00,
2013-12-20 04:11:00,18.9,17.0,29.95,North,5,8.0,14.0,92,0.00,,,0.00,0,Wunderground v.1.15,2013-12-20 10:11:00,
2013-12-20 04:20:00,18.8,16.9,29.96,North,355,9.0,9.0,92,0.00,,,0.00,0,Wunderground v.1.15,2013-12-20 10:20:00,
2013-12-20 04:30:00,18.7,16.8,29.97,North,360,8.0,8.0,92,0.00,,,0.00,0,Wunderground v.1.15,2013-12-20 10:30:00,
2013-12-20 04:41:00,18.5,16.3,29.97,North,355,9.0,9.0,91,0.00,,,0.00,0,Wunderground v.1.15,2013-12-20 10:41:00,
2013-12-20 04:51:00,18.4,16.2,29.97,NNE,17,8.0,14.0,91,0.00,,,0.00,0,Wunderground v.1.15,2013-12-20 10:51:00,
2013-12-20 05:00:00,18.5,16.3,29.98,NNW,348,8.0,14.0,91,0.00,,,0.00,0,Wunderground v.1.15,2013-12-20 11:00:00,
2013-12-20 05:10:00,18.6,16.4,29.98,NNW,342,9.0,9.0,91,0.00,,,0.00,0,Wunderground v.1.15,2013-12-20 11:10:00,
2013-12-20 05:21:00,18.7,16.5,29.97,NNW,343,8.0,16.0,91,0.00,,,0.00,0,Wunderground v.1.15,2013-12-20 11:21:00,
2013-12-20 05:31:00,18.7,16.8,29.97,North,355,8.0,12.0,92,0.00,,,0.00,0,Wunderground v.1.15,2013-12-20 11:31:00,
2013-12-20 05:40:00,18.8,16.9,29.97,North,360,8.0,8.0,92,0.00,,,0.00,0,Wunderground v.1.15,2013-12-20 11:40:00,
2013-12-20 05:51:00,18.9,17.0,29.97,NNE,12,8.0,8.0,92,0.00,,,0.00,0,Wunderground v.1.15,2013-12-20 11:51:00,
2013-12-20 06:01:00,18.9,17.0,29.97,North,360,7.0,13.0,92,0.00,,,0.00,0,Wunderground v.1.15,2013-12-20 12:01:00,
2013-12-20 06:10:00,18.9,17.0,29.97,North,360,8.0,8.0,92,0.00,,,0.00,0,Wunderground v.1.15,2013-12-20 12:10:00,
2013-12-20 06:21:00,19.0,17.1,29.97,North,355,7.0,13.0,92,0.00,,,0.00,0,Wunderground v.1.15,2013-12-20 12:21:00,
2013-12-20 06:31:00,19.0,17.1,29.98,NNW,346,8.0,14.0,92,0.00,,,0.00,0,Wunderground v.1.15,2013-12-20 12:31:00,
2013-12-20 06:41:00,19.0,17.1,29.98,North,355,8.0,13.0,92,0.00,,,0.00,0,Wunderground v.1.15,2013-12-20 12:41:00,
2013-12-20 06:50:00,19.0,17.1,29.98,North,350,8.0,13.0,92,0.00,,,0.00,0,Wunderground v.1.15,2013-12-20 12:50:00,
2013-12-20 07:00:00,18.9,17.0,29.98,North,5,8.0,8.0,92,0.00,,,0.00,0,Wunderground v.1.15,2013-12-20 13:00:00,
2013-12-20 07:11:00,18.8,16.9,29.99,NNW,348,7.0,13.0,92,0.00,,,0.00,0,Wunderground v.1.15,2013-12-20 13:11:00,
2013-12-20 07:21:00,18.8,16.9,29.99,North,5,7.0,12.0,92,0.00,,,0.00,0,Wunderground v.1.15,2013-12-20 13:21:00,
2013-12-20 07:30:00,18.7,16.8,29.99,North,351,9.0,12.0,92,0.00,,,0.00,0,Wunderground v.1.15,2013-12-20 13:30:00,
2013-12-20 07:41:00,18.6,16.7,29.99,North,355,8.0,13.0,92,0.00,,,0.00,0,Wunderground v.1.15,2013-12-20 13:41:00,
2013-12-20 07:50:00,18.6,16.4,30.00,North,5,8.0,15.0,91,0.00,,,0.00,0,Wunderground v.1.15,2013-12-20 13:50:00,
2013-12-20 08:00:00,18.6,16.4,30.00,North,5,7.0,7.0,91,0.00,,,0.00,0,Wunderground v.1.15,2013-12-20 14:00:00,
2013-12-20 08:11:00,18.5,16.3,30.00,North,5,8.0,8.0,91,0.00,,,0.00,0,Wunderground v.1.15,2013-12-20 14:11:00,
2013-12-20 08:21:00,18.5,16.3,30.00,North,5,8.0,8.0,91,0.00,,,0.00,0,Wunderground v.1.15,2013-12-20 14:21:00,
2013-12-20 08:30:00,18.5,16.3,29.99,NNE,15,8.0,13.0,91,0.00,,,0.00,5,Wunderground v.1.15,2013-12-20 14:30:00,
2013-12-20 08:40:00,18.4,16.2,30.00,North,5,7.0,11.0,91,0.00,,,0.00,7,Wunderground v.1.15,2013-12-20 14:40:00,
2013-12-20 08:51:00,18.3,16.1,30.00,North,349,7.0,13.0,91,0.00,,,0.00,7,Wunderground v.1.15,2013-12-20 14:51:00,
2013-12-20 09:00:00,18.2,16.0,30.00,North,5,8.0,8.0,91,0.00,,,0.00,11,Wunderground v.1.15,2013-12-20 15:00:00,
2013-12-20 09:10:00,18.1,15.9,30.00,North,5,8.0,13.0,91,0.00,,,0.00,12,Wunderground v.1.15,2013-12-20 15:10:00,
2013-12-20 09:21:00,18.0,15.8,30.00,NNE,12,9.0,9.0,91,0.00,,,0.00,16,Wunderground v.1.15,2013-12-20 15:21:00,
2013-12-20 09:31:00,18.0,15.8,30.00,North,360,8.0,8.0,91,0.00,,,0.00,19,Wunderground v.1.15,2013-12-20 15:31:00,
2013-12-20 09:41:00,17.9,15.7,30.00,North,5,8.0,8.0,91,0.00,,,0.00,23,Wunderground v.1.15,2013-12-20 15:41:00,
2013-12-20 09:50:00,18.0,15.8,30.00,North,355,8.0,13.0,91,0.00,,,0.00,33,Wunderground v.1.15,2013-12-20 15:50:00,
2013-12-20 10:00:00,18.1,16.2,30.01,NNW,340,7.0,13.0,92,0.00,,,0.00,33,Wunderground v.1.15,2013-12-20 16:00:00,
2013-12-20 10:11:00,18.1,16.2,30.01,NNW,344,8.0,13.0,92,0.00,,,0.00,33,Wunderground v.1.15,2013-12-20 16:11:00,
2013-12-20 10:20:00,18.2,16.3,30.01,North,9,8.0,8.0,92,0.00,,,0.00,35,Wunderground v.1.15,2013-12-20 16:20:00,
2013-12-20 10:31:00,18.3,16.4,30.03,North,355,6.0,6.0,92,0.00,,,0.00,30,Wunderground v.1.15,2013-12-20 16:31:00,
2013-12-20 10:41:00,18.3,16.4,30.02,NNW,348,7.0,7.0,92,0.00,,,0.00,26,Wunderground v.1.15,2013-12-20 16:41:00,
2013-12-20 10:50:00,18.3,16.4,30.01,NNW,337,7.0,7.0,92,0.00,,,0.00,37,Wunderground v.1.15,2013-12-20 16:50:00,
2013-12-20 11:01:00,18.4,16.5,30.01,NNW,342,6.0,10.0,92,0.00,,,0.00,35,Wunderground v.1.15,2013-12-20 17:01:00,
2013-12-20 11:11:00,18.6,16.7,30.01,NNW,341,6.0,12.0,92,0.00,,,0.00,37,Wunderground v.1.15,2013-12-20 17:11:00,
2013-12-20 11:21:00,18.6,16.7,30.00,NNW,342,6.0,12.0,92,0.00,,,0.00,53,Wunderground v.1.15,2013-12-20 17:21:00,
2013-12-20 11:30:00,18.7,16.8,29.99,NNW,348,6.0,10.0,92,0.00,,,0.00,62,Wunderground v.1.15,2013-12-20 17:30:00,
2013-12-20 11:41:00,18.9,17.0,29.99,North,355,7.0,11.0,92,0.00,,,0.00,63,Wunderground v.1.15,2013-12-20 17:41:00,
2013-12-20 11:50:00,18.9,17.0,29.99,NNW,342,7.0,7.0,92,0.00,,,0.00,60,Wunderground v.1.15,2013-12-20 17:50:00,
2013-12-20 12:00:00,19.1,17.2,29.99,NNW,348,7.0,13.0,92,0.00,,,0.00,63,Wunderground v.1.15,2013-12-20 18:00:00,
2013-12-20 12:11:00,19.2,17.3,29.98,North,360,8.0,11.0,92,0.00,,,0.00,69,Wunderground v.1.15,2013-12-20 18:11:00,
2013-12-20 12:20:00,19.1,17.2,29.98,NNW,331,7.0,7.0,92,0.00,,,0.00,65,Wunderground v.1.15,2013-12-20 18:20:00,
2013-12-20 12:30:00,19.3,17.4,29.97,NNW,344,7.0,13.0,92,0.00,,,0.00,77,Wunderground v.1.15,2013-12-20 18:30:00,
2013-12-20 12:41:00,19.5,17.6,29.97,North,355,7.0,7.0,92,0.00,,,0.00,72,Wunderground v.1.15,2013-12-20 18:41:00,
2013-12-20 12:50:00,19.3,17.4,29.97,NW,314,7.0,11.0,92,0.00,,,0.00,62,Wunderground v.1.15,2013-12-20 18:50:00,
2013-12-20 13:00:00,19.2,17.3,29.97,NW,325,8.0,11.0,92,0.00,,,0.00,51,Wunderground v.1.15,2013-12-20 19:00:00,
2013-12-20 13:11:00,19.2,17.0,29.97,NNW,340,7.0,7.0,91,0.00,,,0.00,58,Wunderground v.1.15,2013-12-20 19:11:00,
2013-12-20 13:21:00,19.4,17.5,29.97,NNW,340,6.0,12.0,92,0.00,,,0.00,54,Wunderground v.1.15,2013-12-20 19:21:00,
2013-12-20 13:30:00,19.2,17.0,29.97,NNW,329,8.0,12.0,91,0.00,,,0.00,65,Wunderground v.1.15,2013-12-20 19:30:00,
2013-12-20 13:41:00,18.9,16.7,29.96,NNW,337,8.0,8.0,91,0.00,,,0.00,62,Wunderground v.1.15,2013-12-20 19:41:00,
2013-12-20 13:51:00,19.0,16.8,29.96,North,350,7.0,7.0,91,0.00,,,0.00,54,Wunderground v.1.15,2013-12-20 19:51:00,
2013-12-20 14:00:00,18.8,16.6,29.96,North,5,8.0,8.0,91,0.00,,,0.00,62,Wunderground v.1.15,2013-12-20 20:00:00,
2013-12-20 14:11:00,18.8,16.6,29.96,NNW,334,8.0,8.0,91,0.00,,,0.00,65,Wunderground v.1.15,2013-12-20 20:11:00,
2013-12-20 14:21:00,19.0,16.8,29.96,NNW,342,7.0,13.0,91,0.00,,,0.00,60,Wunderground v.1.15,2013-12-20 20:21:00,
2013-12-20 14:31:00,18.9,16.5,29.96,NNW,339,8.0,8.0,90,0.00,,,0.00,62,Wunderground v.1.15,2013-12-20 20:31:00,
2013-12-20 14:40:00,18.9,16.5,29.95,NW,326,7.0,7.0,90,0.00,,,0.00,56,Wunderground v.1.15,2013-12-20 20:40:00,
2013-12-20 14:51:00,18.9,16.7,29.95,NNW,330,6.0,12.0,91,0.00,,,0.00,46,Wunderground v.1.15,2013-12-20 20:51:00,
2013-12-20 15:01:00,18.7,16.5,29.95,North,5,7.0,11.0,91,0.00,,,0.00,44,Wunderground v.1.15,2013-12-20 21:01:00,
2013-12-20 15:10:00,18.8,16.6,29.95,NNW,342,7.0,7.0,91,0.00,,,0.00,40,Wunderground v.1.15,2013-12-20 21:10:00,
2013-12-20 15:20:00,18.8,16.6,29.96,North,355,6.0,12.0,91,0.00,,,0.00,32,Wunderground v.1.15,2013-12-20 21:20:00,
2013-12-20 15:31:00,18.8,16.6,29.97,NNW,343,5.0,12.0,91,0.00,,,0.00,30,Wunderground v.1.15,2013-12-20 21:31:00,
2013-12-20 15:40:00,18.8,16.6,29.97,NNW,343,6.0,6.0,91,0.00,,,0.00,25,Wunderground v.1.15,2013-12-20 21:40:00,
2013-12-20 15:50:00,-999.9,-99.9,29.98,NNW,334,7.0,9.0,255,-99.99,,,0.00,,Wunderground v.1.15,2013-12-20 21:50:00,
2013-12-20 16:01:00,-999.9,-99.9,29.98,NW,308,6.0,11.0,255,-99.99,,,0.00,,Wunderground v.1.15,2013-12-20 22:01:00,
2013-12-20 16:10:00,-999.9,-99.9,29.98,NNW,331,4.0,9.0,255,-99.99,,,0.00,,Wunderground v.1.15,2013-12-20 22:10:00,
2013-12-20 16:20:00,-999.9,-99.9,29.99,NW,309,3.0,9.0,255,-99.99,,,0.00,,Wunderground v.1.15,2013-12-20 22:20:00,
2013-12-20 16:31:00,-999.9,-99.9,29.99,NW,318,4.0,4.0,255,-99.99,,,0.00,,Wunderground v.1.15,2013-12-20 22:31:00,
2013-12-20 16:41:00,18.6,16.2,29.99,NNW,342,4.0,7.0,90,0.00,,,0.00,0,Wunderground v.1.15,2013-12-20 22:41:00,
2013-12-20 16:50:00,18.5,16.1,29.99,North,32767,-999.0,7.0,90,0.00,,,0.00,0,Wunderground v.1.15,2013-12-20 22:50:00,
2013-12-20 17:00:00,18.4,16.0,29.99,North,32767,-999.0,8.0,90,0.00,,,0.00,0,Wunderground v.1.15,2013-12-20 23:00:00,
2013-12-20 17:11:00,18.5,16.1,29.98,North,32767,-999.0,0.0,90,0.00,,,0.00,0,Wunderground v.1.15,2013-12-20 23:11:00,
2013-12-20 17:21:00,18.4,16.0,29.99,North,32767,-999.0,0.0,90,0.00,,,0.00,0,Wunderground v.1.15,2013-12-20 23:21:00,
2013-12-20 17:30:00,18.4,16.0,29.99,NNW,335,7.0,7.0,90,0.00,,,0.00,0,Wunderground v.1.15,2013-12-20 23:30:00,
2013-12-20 17:40:00,18.4,16.0,29.99,NNW,340,5.0,10.0,90,0.00,,,0.00,0,Wunderground v.1.15,2013-12-20 23:40:00,
2013-12-20 17:51:00,18.5,16.1,29.99,NNW,335,4.0,10.0,90,0.00,,,0.00,0,Wunderground v.1.15,2013-12-20 23:51:00,
2013-12-20 18:00:00,18.5,16.1,29.98,NNW,347,4.0,4.0,90,0.00,,,0.00,0,Wunderground v.1.15,2013-12-21 00:00:00,
2013-12-20 18:11:00,18.5,16.1,29.99,NW,316,4.0,4.0,90,0.00,,,0.00,0,Wunderground v.1.15,2013-12-21 00:11:00,
2013-12-20 18:21:00,18.5,16.1,30.00,NW,317,2.0,6.0,90,0.00,,,0.00,0,Wunderground v.1.15,2013-12-21 00:21:00,
2013-12-20 18:30:00,18.5,16.1,29.99,NNW,334,3.0,6.0,90,0.00,,,0.00,0,Wunderground v.1.15,2013-12-21 00:30:00,
2013-12-20 18:40:00,18.6,16.2,29.99,NNW,332,3.0,6.0,90,0.00,,,0.00,0,Wunderground v.1.15,2013-12-21 00:40:00,
2013-12-20 18:51:00,18.6,16.2,29.99,NNW,333,3.0,6.0,90,0.00,,,0.00,0,Wunderground v.1.15,2013-12-21 00:51:00,
2013-12-20 19:01:00,18.6,16.2,30.00,North,350,3.0,6.0,90,0.00,,,0.00,0,Wunderground v.1.15,2013-12-21 01:01:00,
2013-12-20 19:11:00,18.7,16.3,29.99,NW,322,4.0,4.0,90,0.00,,,0.00,0,Wunderground v.1.15,2013-12-21 01:11:00,
2013-12-20 19:20:00,18.7,16.3,29.98,NNW,340,2.0,5.0,90,0.00,,,0.00,0,Wunderground v.1.15,2013-12-21 01:20:00,
2013-12-20 19:31:00,-999.9,-99.9,29.97,NNW,340,3.0,7.0,255,-99.99,,,0.00,,Wunderground v.1.15,2013-12-21 01:31:00,
2013-12-20 19:41:00,-999.9,-99.9,29.97,NNW,342,3.0,5.0,255,-99.99,,,0.00,,Wunderground v.1.15,2013-12-21 01:41:00,
2013-12-20 19:50:00,-999.9,-99.9,29.96,North,355,3.0,3.0,255,-99.99,,,0.00,,Wunderground v.1.15,2013-12-21 01:50:00,
2013-12-20 20:00:00,-999.9,-99.9,29.95,North,355,3.0,6.0,255,-99.99,,,0.00,,Wunderground v.1.15,2013-12-21 02:00:00,
2013-12-20 20:11:00,18.6,16.2,29.95,North,350,2.0,2.0,90,0.00,,,0.00,0,Wunderground v.1.15,2013-12-21 02:11:00,
2013-12-20 20:20:00,18.6,16.2,29.95,North,350,1.0,5.0,90,0.00,,,0.00,0,Wunderground v.1.15,2013-12-21 02:20:00,
2013-12-20 20:30:00,18.6,16.2,29.94,NNW,343,2.0,4.0,90,0.00,,,0.00,0,Wunderground v.1.15,2013-12-21 02:30:00,
2013-12-20 20:40:00,18.6,16.2,29.94,NNW,339,1.0,4.0,90,0.00,,,0.00,0,Wunderground v.1.15,2013-12-21 02:40:00,
2013-12-20 20:51:00,18.6,16.2,29.94,NNW,339,1.0,4.0,90,0.00,,,0.00,0,Wunderground v.1.15,2013-12-21 02:51:00,
2013-12-20 21:00:00,18.6,16.2,29.93,NNW,339,1.0,1.0,90,0.00,,,0.00,0,Wunderground v.1.15,2013-12-21 03:00:00,
2013-12-20 21:11:00,18.6,16.2,29.94,NNW,339,1.0,3.0,90,0.00,,,0.00,0,Wunderground v.1.15,2013-12-21 03:11:00,
2013-12-20 21:20:00,18.6,16.2,29.94,NNW,332,3.0,4.0,90,0.00,,,0.00,0,Wunderground v.1.15,2013-12-21 03:20:00,
2013-12-20 21:30:00,18.7,16.3,29.94,NNW,327,3.0,5.0,90,0.00,,,0.00,0,Wunderground v.1.15,2013-12-21 03:30:00,
2013-12-20 21:40:00,18.7,16.3,29.95,NW,316,4.0,4.0,90,0.00,,,0.00,0,Wunderground v.1.15,2013-12-21 03:40:00,
2013-12-20 21:51:00,18.8,16.4,29.95,NW,323,4.0,5.0,90,0.00,,,0.00,0,Wunderground v.1.15,2013-12-21 03:51:00,
2013-12-20 22:01:00,18.8,16.4,29.96,NW,318,3.0,3.0,90,0.00,,,0.00,0,Wunderground v.1.15,2013-12-21 04:01:00,
2013-12-20 22:10:00,18.8,16.4,29.97,NW,309,3.0,6.0,90,0.00,,,0.00,0,Wunderground v.1.15,2013-12-21 04:10:00,
2013-12-20 22:20:00,18.8,16.4,29.96,NW,317,3.0,5.0,90,0.00,,,0.00,0,Wunderground v.1.15,2013-12-21 04:20:00,
2013-12-20 22:31:00,18.8,16.4,29.95,NW,318,3.0,3.0,90,0.00,,,0.00,0,Wunderground v.1.15,2013-12-21 04:31:00,
2013-12-20 22:40:00,18.7,16.0,29.95,WNW,293,3.0,3.0,89,0.00,,,0.00,0,Wunderground v.1.15,2013-12-21 04:40:00,
2013-12-20 22:50:00,18.7,16.0,29.95,NW,317,4.0,5.0,89,0.00,,,0.00,0,Wunderground v.1.15,2013-12-21 04:50:00,
2013-12-20 23:01:00,18.6,15.9,29.95,NW,311,4.0,4.0,89,0.00,,,0.00,0,Wunderground v.1.15,2013-12-21 05:01:00,
2013-12-20 23:11:00,18.5,15.8,29.95,NNW,331,3.0,6.0,89,0.00,,,0.00,0,Wunderground v.1.15,2013-12-21 05:11:00,
2013-12-20 23:20:00,18.4,15.4,29.96,NNW,338,4.0,6.0,88,0.00,,,0.00,0,Wunderground v.1.15,2013-12-21 05:20:00,
2013-12-20 23:31:00,18.3,15.6,29.96,NW,311,4.0,7.0,89,0.00,,,0.00,0,Wunderground v.1.15,2013-12-21 05:31:00,
2013-12-20 23:41:00,18.3,15.6,29.97,NW,319,4.0,6.0,89,0.00,,,0.00,0,Wunderground v.1.15,2013-12-21 05:41:00,
2013-12-20 23:50:00,18.3,15.3,29.97,WNW,287,3.0,7.0,88,0.00,,,0.00,0,Wunderground v.1.15,2013-12-21 05:50:00,